[Iaude] MPEC U296: 2023 UN10 [a=1.44,e=0.39,i=2.7,H=24.0]

mpec at marsden.cfa.harvard.edu mpec at marsden.cfa.harvard.edu
Tue Oct 31 10:24:00 EDT 2023


M.P.E.C. 2023-U296                             Issued 2023 October 31, 14:22 UT

     The Minor Planet Electronic Circulars contain information on unusual
         minor planets, routine data on comets and natural satellites,
         and occasional editorial announcements.  They are published
    on behalf of Division F of the International Astronomical Union by the
          Minor Planet Center, Smithsonian Astrophysical Observatory,
                          Cambridge, MA 02138, U.S.A.
			  
             Prepared using the Tamkin Foundation Computer Network

                              MPC at CFA.HARVARD.EDU
            URL https://www.minorplanetcenter.net/    ISSN 1523-6714

                                   2023 UN10                                    


Observations:
     K23U10N* C2023 10 30.34684623 31 55.244+15 28 51.50         19.26iXEU296F52
     K23U10N  C2023 10 30.35716823 32 05.452+15 29 42.30         19.12iXEU296F52
     K23U10N  C2023 10 30.36750823 32 15.681+15 30 33.00         19.25iXEU296F52
     K23U10N  C2023 10 30.37783323 32 25.869+15 31 23.09         19.19iXEU296F52
     K23U10N  C2023 10 30.50490823 34 32.363+15 41 21.92         19.43GVEU296F51
     K23U10N  C2023 10 30.50556223 34 33.025+15 41 24.98         19.31GVEU296F51
     K23U10N KB2023 10 30.64467623 37 08.71 +15 51 38.1          19.3 GXEU296L76
     K23U10N KB2023 10 30.65213323 37 16.03 +15 52 13.1          19.3 GXEU296L76
     K23U10N KB2023 10 30.65959423 37 23.32 +15 52 49.4          19.1 GXEU296L76
     K23U10N  C2023 10 30.75245 23 38 54.96 +16 03 10.5          19.1 GVEU296M28
     K23U10N  C2023 10 30.75453 23 38 56.86 +16 03 19.4          19.0 GVEU296M28
     K23U10N  C2023 10 30.75660 23 38 58.70 +16 03 28.9          19.3 GVEU296M28
     K23U10N KC2023 10 30.90170823 41 16.982+16 11 04.02         19.6 GVEU296J95
     K23U10N KC2023 10 30.90326523 41 18.384+16 11 10.43         18.6 GVEU296J95
     K23U10N KC2023 10 30.90483423 41 19.865+16 11 16.94         18.5 GVEU296J95
     K23U10N KC2023 10 30.90717623 41 22.042+16 11 27.49         19.4 GVEU296J95
     K23U10N KC2023 10 31.06986023 44 04.03 +16 23 42.5          19.6 GXEU296858
     K23U10N KC2023 10 31.07413323 44 07.86 +16 24 01.2          19.7 GXEU296858
     K23U10N KC2023 10 31.08638323 44 18.92 +16 24 54.5          19.4 GXEU296858
     K23U10N KC2023 10 31.12924623 44 54.67 +16 27 50.0          19.2 GVEU296H21
     K23U10N KC2023 10 31.13204423 44 57.17 +16 28 01.5          19.3 GVEU296H21
     K23U10N KC2023 10 31.13484123 44 59.65 +16 28 13.6          19.3 GVEU296H21
     K23U10N KC2023 10 31.13782523 45 02.30 +16 28 25.9          19.4 GVEU296H21

Observer details:
858 Tebbutt Observatory, Edgewood.  Observer F. B. Zoltowski.  0.51-m f/8.1
    Schmidt-Cassegrain + CCD.
F51 Pan-STARRS 1, Haleakala.  Observers J. Bulger, T. Lowe, P. Minguez, A.
    Schultz, I. Smith.  Measurers K. Chambers, T. de Boer, J. Fairlamb, H.
    Gao, M. Huber, C.-C. Lin, E. Magnier, Y. Ramanjooloo, R. Wainscoat, R.
    Weryk.  1.8-m Ritchey-Chretien + CCD.
F52 Pan-STARRS 2, Haleakala.  Observers J. Bulger, T. Lowe, P. Minguez, A.
    Schultz, I. Smith.  Measurers K. Chambers, T. de Boer, J. Fairlamb, H.
    Gao, M. Huber, C.-C. Lin, E. Magnier, Y. Ramanjooloo, R. Wainscoat, R.
    Weryk.  1.8-m Ritchey-Chretien + CCD.
H21 Astronomical Research Observatory, Westfield.  Observer R. Holmes.
    Measurers T. Linder, R. Holmes, L. Horn.  0.76-m f/3.0 astrograph + CCD.
J95 Great Shefford.  Observer P. Birtwhistle.  0.41-m f/6.3 Schmidt-Cassegrain
    + CCD.
L76 Nomad Observatory, Kochevanchik.  Observer E. Romas.  0.25-m f/4 Newtonian
    + CMO.
M28 Lesedi Telescope-SAAO Observatory, Sutherland.  Observers N. Erasmus, S.
    Potter, C. van Gend, S. Chandra, H. Worters.  Measurers T. Ngwane, N.
    Erasmus.  1.0-m f/8 Reflector + CCD.

Orbital elements:
2023 UN10                                                Earth MOID = 0.0093 AU
Epoch 2023 Sept. 13.0 TT = JDT 2460200.5                Bell                    
M   1.55515              (2000.0)            P               Q                  
n   0.56921500     Peri.  317.24680     +0.88016373     +0.47453003             
a   1.4419554      Node    14.43721     -0.42205352     +0.79348820             
e   0.3905079      Incl.    2.65187     -0.21721565     +0.38104820             
P   1.73           H   24.06          G   0.15           U   8                  
Residuals in seconds of arc
231030 F52  0.1+  0.0     231030 L76  1.3+  0.5+    231031 858  0.5+  0.2+
231030 F52  0.1+  0.0     231030 M28  0.8-  1.7+    231031 858  0.1-  0.2+
231030 F52  0.2+  0.1+    231030 M28  1.6-  1.0+    231031 858  0.0   0.1+
231030 F52  0.1-  0.1-    231030 M28  3.1-  0.9+    231031 H21  0.0   0.0
231030 F51  0.1-  0.1-    231030 J95  0.5+  0.5+    231031 H21  0.1+  0.2-
231030 F51  0.0   0.1-    231030 J95  0.2-  0.0     231031 H21  0.0   0.2+
231030 L76  0.5-  0.6+    231030 J95  0.1+  0.3-    231031 H21  0.1-  0.0
231030 L76  0.5+  0.1-    231030 J95  0.1+  0.1-

Ephemeris:
2023 UN10                a,e,i = 1.44, 0.39, 3                   q = 0.8789
Date    TT    R. A. (2000) Decl.     Delta      r    Elong.  Phase     V
2023 10 01    15 28 56.6 -23 01 50   0.1482  0.9100    48.5   124.5    24.9
...
2023 10 16    17 18 38.6 -19 50 13   0.06205 0.9660    58.3   118.6    22.7
...
2023 10 24    20 44 21.9 -01 22 33   0.03911 1.0041   102.6    75.2    19.7
...
2023 10 30    23 25 43.4 +14 59 04   0.05514 1.0355   139.1    38.9    19.4
2023 10 31    23 42 51.6 +16 19 34   0.05976 1.0410   142.4    35.6    19.5
2023 11 01    23 57 43.4 +17 24 00   0.06470 1.0464   145.1    32.9    19.6
...
2023 11 07    00 55 15.3 +20 40 49   0.09844 1.0801   153.3    24.3    20.3
...
2023 11 15    01 32 01.6 +21 54 46   0.1499  1.1268   154.8    22.0    21.3
...
2023 11 30    02 06 18.0 +22 22 31   0.2614  1.2173   148.7    24.9    22.7

M. P. C. Staff               (C) Copyright 2023 MPC           M.P.E.C. 2023-U296





More information about the Iaude mailing list